Location: Unspecified
(0.0000°N, 0.0000°E)
Time: 17:50:16
(UTC+00:00)

Courier 1B - All Passes

Search period start: 01 April 2015 00:00
Search period end: 11 April 2015 00:00
Orbit: 963 x 1209 km, 28.3° (Epoch: 30 March)

Date Brightness Start Highest point End Pass type
(mag) Time Alt. Az. Time Alt. Az. Time Alt. Az.
01 Apr - 01:13:02 10° NW 01:19:27 66° NNE 01:26:07 10° ESE night (unlit)
01 Apr - 03:07:41 10° W 03:13:38 34° SSW 03:19:49 10° SE visible
01 Apr - 05:06:45 10° SW 05:08:49 11° SSW 05:10:38 10° S visible
01 Apr - 10:52:44 10° SSW 10:58:07 20° SSE 11:03:42 10° ESE daylight
01 Apr - 12:45:21 10° SW 12:53:06 60° SSE 13:00:39 10° ENE daylight
01 Apr - 14:40:14 10° W 14:47:34 44° NNW 14:54:32 10° NE daylight
01 Apr - 16:38:56 10° NW 16:42:33 14° NNW 16:45:47 10° N daylight
01 Apr - 22:28:22 10° N 22:31:06 13° NNE 22:34:03 10° NE night (unlit)
02 Apr - 00:19:35 10° NW 00:25:43 46° NNE 00:32:01 10° ESE night (unlit)
02 Apr - 02:13:33 10° WNW 02:19:47 47° SSW 02:26:18 10° SE visible
02 Apr - 04:10:57 10° SW 04:14:37 15° SSW 04:18:10 10° S visible
02 Apr - 09:59:45 10° S 10:03:51 15° SSE 10:08:13 10° SE daylight
02 Apr - 11:51:39 10° SW 11:59:03 45° SSE 12:06:26 10° E daylight
02 Apr - 13:45:51 10° WSW 13:53:36 60° NNW 14:01:02 10° NE daylight
02 Apr - 15:43:11 10° WNW 15:48:23 19° NNW 15:53:13 10° NNE daylight
02 Apr - 23:26:16 10° NNW 23:31:57 33° NNE 23:37:44 10° E night (unlit)
03 Apr - 01:19:37 10° WNW 01:26:02 67° SSW 01:32:40 10° SE night (unlit)
03 Apr - 03:15:53 10° WSW 03:20:32 19° SSW 03:25:10 10° SSE visible
03 Apr - 09:07:26 10° S 09:09:30 11° SSE 09:11:52 10° SE daylight
03 Apr - 10:58:08 10° SW 11:04:59 33° SSE 11:11:57 10° E daylight
03 Apr - 12:51:42 10° WSW 12:59:36 81° NNW 13:07:20 10° ENE daylight
03 Apr - 14:47:58 10° W 14:54:16 26° NNW 15:00:13 10° NNE daylight
03 Apr - 22:33:06 10° NNW 22:38:07 24° NNE 22:43:13 10° ENE night (unlit)
04 Apr - 00:25:51 10° WNW 00:32:20 87° NNE 00:38:56 10° ESE night (unlit)
04 Apr - 02:21:14 10° W 02:26:34 26° SSW 02:31:59 10° SSE visible
04 Apr - 10:04:49 10° SSW 10:10:51 25° SSE 10:17:07 10° E daylight
04 Apr - 11:57:45 10° SW 12:05:37 77° SSE 12:13:26 10° ENE daylight
04 Apr - 13:53:09 10° W 14:00:11 35° NNW 14:06:57 10° NE daylight
04 Apr - 15:53:11 10° NW 15:55:29 11° NNW 15:57:28 10° N daylight
04 Apr - 21:40:05 10° NNW 21:44:11 17° NNE 21:48:23 10° ENE visible
04 Apr - 23:32:13 10° NW 23:38:38 62° NNE 23:45:03 10° ESE night (unlit)
05 Apr - 01:26:51 10° W 01:32:43 35° SSW 01:38:40 10° SE night (unlit)
05 Apr - 03:26:08 10° SSW 03:27:41 11° SSW 03:29:02 10° S visible
05 Apr - 09:11:43 10° SSW 09:16:40 19° SSE 09:21:56 10° ESE daylight
05 Apr - 11:03:59 10° SW 11:11:36 57° SSE 11:19:19 10° ENE daylight
05 Apr - 12:58:37 10° WSW 13:06:08 47° NNW 13:13:30 10° NE daylight
05 Apr - 14:56:47 10° WNW 15:01:13 16° NNW 15:05:19 10° N daylight
05 Apr - 20:47:23 10° N 20:50:08 13° NNE 20:53:03 10° NE visible
05 Apr - 22:38:43 10° NW 22:44:54 43° NNE 22:51:01 10° E night (unlit)
06 Apr - 00:32:42 10° WNW 00:38:57 50° SSW 00:45:14 10° SE night (unlit)
06 Apr - 02:30:06 10° SW 02:33:35 14° SSW 02:36:55 10° S night (unlit)
06 Apr - 08:19:02 10° S 08:22:25 14° SSE 08:26:10 10° SE daylight
06 Apr - 10:10:26 10° SW 10:17:35 42° SSE 10:24:56 10° E daylight
06 Apr - 12:04:21 10° WSW 12:12:07 64° NNW 12:19:51 10° NE daylight
06 Apr - 14:01:17 10° WNW 14:07:00 21° NNW 14:12:24 10° NNE daylight
06 Apr - 21:45:19 10° NNW 21:51:06 31° NNE 21:56:47 10° E visible
06 Apr - 23:38:44 10° WNW 23:45:14 71° SSW 23:51:42 10° SE night (unlit)
07 Apr - 01:34:59 10° WSW 01:39:35 20° SSW 01:44:05 10° SSE night (unlit)
07 Apr - 09:17:04 10° SSW 09:23:32 31° SSE 09:30:17 10° E daylight
07 Apr - 11:10:20 10° WSW 11:18:07 85° NNW 11:26:01 10° ENE daylight
07 Apr - 13:06:15 10° W 13:12:50 28° NNW 13:19:13 10° NNE daylight
07 Apr - 20:52:02 10° NNW 20:57:12 23° NNE 21:02:19 10° ENE visible
07 Apr - 22:44:54 10° WNW 22:51:32 82° NNE 22:58:02 10° ESE night (unlit)
08 Apr - 00:40:18 10° W 00:45:41 27° SSW 00:51:01 10° SSE night (unlit)
08 Apr - 08:23:55 10° SSW 08:29:26 23° SSE 08:35:19 10° ESE daylight
08 Apr - 10:16:31 10° SW 10:24:08 72° SSE 10:31:59 10° ENE daylight
08 Apr - 12:11:35 10° W 12:18:42 37° NNW 12:25:48 10° NE daylight
08 Apr - 14:10:45 10° NW 14:14:05 13° NNW 14:17:06 10° N daylight
08 Apr - 19:58:54 10° NNW 20:03:11 17° NNE 20:07:31 10° ENE visible
08 Apr - 21:51:11 10° NW 21:57:49 58° NNE 22:04:12 10° ESE visible
08 Apr - 23:45:52 10° W 23:51:53 37° SSW 23:57:47 10° SE night (unlit)
09 Apr - 01:45:09 10° SSW 01:46:41 11° SSW 01:47:58 10° S night (unlit)
09 Apr - 07:31:03 10° SSW 07:35:18 17° SSE 07:39:56 10° ESE daylight
09 Apr - 09:22:55 10° SW 09:30:09 53° SSE 09:37:45 10° ENE daylight
09 Apr - 11:17:12 10° WSW 11:24:39 50° NNW 11:32:12 10° NE daylight
09 Apr - 13:14:53 10° WNW 13:19:46 17° NNW 13:24:25 10° NNE daylight
09 Apr - 19:06:01 10° N 19:09:03 13° NNE 19:12:15 10° NE visible
09 Apr - 20:57:36 10° NW 21:04:01 42° NNE 21:10:12 10° E visible
09 Apr - 22:51:39 10° WNW 22:58:08 53° SSW 23:04:26 10° SE night (unlit)
10 Apr - 00:49:01 10° WSW 00:52:38 15° SSW 00:56:03 10° S night (unlit)
10 Apr - 06:38:49 10° S 06:41:08 12° SSE 06:43:45 10° SE daylight
10 Apr - 08:29:30 10° SW 08:36:11 38° SSE 08:43:16 10° E daylight
10 Apr - 10:23:06 10° WSW 10:30:38 68° NNW 10:38:26 10° NE daylight
10 Apr - 12:19:37 10° WNW 12:25:31 22° NNW 12:31:17 10° NNE daylight
10 Apr - 18:14:24 10° NNE 18:14:49 10° NNE 18:15:28 10° NNE daylight
10 Apr - 20:04:06 10° NNW 20:10:08 31° NNE 20:15:59 10° E visible
10 Apr - 21:57:35 10° WNW 22:04:24 76° SSW 22:10:56 10° SE visible
